Location: Hermaringen
(48.5952°N, 10.2585°E)
Time: 10:33:33
(UTC+00:00)

A-11 Canister half - Pass Details

Date: 21 February 2026
Orbit: 1513 x 1687 km, 47.2° (Epoch: 11 March)

Event Time Altitude Azimuth Distance (km) Brightness Sun altitude
Rises 19:17:12 0° 226° (SW) 4,930 12.1 -24.9°
Reaches altitude 10° 19:20:28 10° 222° (SW) 3,946 11.5 -25.5°
Maximum altitude 19:30:12 54° 149° (SSE) 1,978 9.2 -27.0°
Enters shadow 19:32:16 47° 114° (ESE) 2,106 9.2 -27.3°
